Valentine, NE

4:23 PM CST on December 05, 2019 (GMT -0600)
Miller Field

Weather History for KVTN - October, 2019

Change the Weather History Date:

Thursday, October 3, 2019

  Actual Average Record
Temperature  
Mean Temperature 48 °F 54 °F  
Max Temperature 63 °F 69 °F 94 °F (1967)
Min Temperature 32 °F 39 °F 26 °F (1902)
Degree Days  
Heating Degree Days 18 12  
Month to date heating degree days 59 34  
Since 1 July heating degree days 112 219  
Cooling Degree Days 0 0  
Month to date cooling degree days 0 1  
Year to date cooling degree days 930 818  
Moisture  
Dew Point 36 °F    
Average Humidity 75    
Maximum Humidity 92    
Minimum Humidity 39    
Precipitation  
Precipitation 0.00 in 0.05 in 1.30 in (2013)
Month to date precipitation 0.37 0.17  
Year to date precipitation 27.27 17.92  
Snow  
Snow 0.00 in 0.10 in T in (1999)
Month to date snowfall 0.0 0.1  
Since 1 July snowfall 0.0 0.8  
Since 1 September snowfall 0.0 0.8  
Snow Depth 0.00 in    
Sea Level Pressure  
Sea Level Pressure 30.29 in    
Wind  
Wind Speed 5 mph ()    
Max Wind Speed 14 mph    
Max Gust Speed 18 mph    
Visibility 7.9 miles    
Events Fog    
T = Trace of Precipitation, MM = Missing Value Source: Averaged Metar Reports

Daily Weather History Graph

Daily Weather History Graph

Search for Another Location

Airport or City:

Astronomy

Oct. 03, 2019 Rise Set
Actual Time 7:41 AM CDT 7:20 PM CDT
Civil Twilight 7:13 AM CDT 7:48 PM CDT
Nautical Twilight 6:40 AM CDT 8:21 PM CDT
Astronomical Twilight 6:07 AM CDT 8:54 PM CDT
Moon 1:22 PM CDT (10/3) 10:53 PM CDT (10/3)
Length of Visible Light 12h 35m
Length of Day
11h 38m
Waxing Crescent, 30% of the Moon is Illuminated
Oct 3
Waxing Crescent
Oct 5
First Quarter
Oct 13
Full
Oct 21
Last Quarter
Oct 27
New

Hourly Weather History & Observations

Time (CDT) Temp. Windchill Dew Point Humidity Pressure Visibility Wind Dir Wind Speed Gust Speed Precip Events Conditions
12:31 AM 39.9 °F 37.8 °F 37.0 °F 89% 30.19 in 10.0 mi NW 3.5 mph - N/A   Overcast
12:52 AM 41.0 °F 37.1 °F 37.9 °F 89% 30.23 in 10.0 mi NW 5.8 mph - N/A   Overcast
1:52 AM 37.9 °F 34.4 °F 35.1 °F 89% 30.25 in 10.0 mi SW 4.6 mph - N/A   Partly Cloudy
2:52 AM 39.9 °F - 37.0 °F 89% 30.25 in 10.0 mi Calm Calm - N/A   Overcast
3:52 AM 37.9 °F - 35.1 °F 89% 30.26 in 10.0 mi Calm Calm - N/A   Clear
4:38 AM 35.1 °F 29.3 °F 32.0 °F 89% 30.23 in 2.5 mi SW 6.9 mph - N/A   Partly Cloudy
4:41 AM 35.1 °F 28.6 °F 32.0 °F 89% 30.23 in 1.0 mi SW 8.1 mph - N/A   Mist
4:48 AM 35.6 °F 29.9 °F 32.0 °F 87% 30.23 in 0.2 mi SW 6.9 mph - N/A Fog Fog
4:52 AM 35.1 °F 29.3 °F 32.0 °F 89% 30.28 in 0.2 mi SW 6.9 mph - N/A Fog Fog
5:00 AM 35.1 °F 28.6 °F 32.0 °F 89% 30.24 in 1.5 mi SW 8.1 mph - N/A   Scattered Clouds
5:02 AM 34.0 °F 27.2 °F 32.0 °F 92% 30.24 in 3.0 mi SW 8.1 mph - N/A   Scattered Clouds
5:20 AM 34.0 °F 28.8 °F 30.9 °F 89% 30.24 in 1.8 mi WSW 5.8 mph - N/A   Scattered Clouds
5:30 AM 34.0 °F 28.0 °F 30.9 °F 89% 30.24 in 1.0 mi WSW 6.9 mph - N/A   Mist
5:36 AM 34.0 °F 29.8 °F 30.9 °F 89% 30.24 in 2.0 mi WSW 4.6 mph - N/A   Scattered Clouds
5:44 AM 34.0 °F 29.8 °F 30.9 °F 89% 30.25 in 9.0 mi SW 4.6 mph - N/A   Scattered Clouds
5:52 AM 34.0 °F 29.8 °F 30.9 °F 89% 30.30 in 10.0 mi SW 4.6 mph - N/A   Partly Cloudy
6:52 AM 35.1 °F 30.1 °F 30.9 °F 85% 30.31 in 10.0 mi West 5.8 mph - N/A   Clear
7:52 AM 32.0 °F 27.5 °F 30.0 °F 92% 30.33 in 10.0 mi West 4.6 mph - N/A   Clear
8:52 AM 37.0 °F 34.5 °F 33.1 °F 86% 30.34 in 10.0 mi West 3.5 mph - N/A   Clear
9:52 AM 46.0 °F 42.5 °F 39.0 °F 76% 30.36 in 10.0 mi West 6.9 mph - N/A   Clear
10:52 AM 48.9 °F - 39.0 °F 69% 30.38 in 10.0 mi West 6.9 mph - N/A   Partly Cloudy
11:36 AM 52.0 °F - 37.9 °F 59% 30.33 in 10.0 mi SW 6.9 mph - N/A   Mostly Cloudy
11:52 AM 52.0 °F - 37.9 °F 59% 30.38 in 10.0 mi WSW 6.9 mph - N/A   Scattered Clouds
12:10 PM 53.1 °F - 39.0 °F 59% 30.33 in 10.0 mi WSW 11.5 mph - N/A   Mostly Cloudy
12:37 PM 54.0 °F - 37.9 °F 55% 30.33 in 10.0 mi Variable 4.6 mph - N/A   Partly Cloudy
12:52 PM 53.1 °F - 37.9 °F 57% 30.36 in 10.0 mi WSW 5.8 mph - N/A   Partly Cloudy
1:52 PM 55.9 °F - 37.9 °F 51% 30.34 in 10.0 mi WSW 5.8 mph - N/A   Partly Cloudy
2:52 PM 59.0 °F - 37.9 °F 46% 30.30 in 10.0 mi Calm Calm - N/A   Clear
3:52 PM 61.0 °F - 39.0 °F 44% 30.28 in 10.0 mi SSE 8.1 mph - N/A   Clear
4:52 PM 62.1 °F - 37.9 °F 41% 30.27 in 10.0 mi Calm Calm - N/A   Clear
5:52 PM 62.1 °F - 37.0 °F 39% 30.27 in 10.0 mi SE 9.2 mph - N/A   Clear
6:52 PM 59.0 °F - 39.9 °F 49% 30.27 in 10.0 mi ESE 8.1 mph - N/A   Clear
7:52 PM 51.1 °F - 39.9 °F 66% 30.30 in 10.0 mi East 8.1 mph - N/A   Clear
8:52 PM 50.0 °F - 39.9 °F 68% 30.30 in 10.0 mi ESE 12.7 mph - N/A   Clear
9:52 PM 48.0 °F - 39.9 °F 74% 30.30 in 10.0 mi ESE 11.5 mph 18.4 mph N/A   Clear
10:52 PM 46.0 °F 41.9 °F 39.9 °F 79% 30.30 in 10.0 mi East 8.1 mph - N/A   Clear
11:52 PM 45.0 °F 39.7 °F 39.0 °F 80% 30.30 in 10.0 mi ESE 10.4 mph - N/A   Clear